Location: Unspecified
(0.0000°N, 0.0000°E)
Time: 06:00:41
(UTC+00:00)

JUGNU - Pass Details

Date: 14 December 2017
Orbit: 837 x 864 km, 20.0° (Epoch: 16 January)

Event Time Altitude Azimuth Distance (km) Brightness Sun altitude
Exits shadow 04:53:08 - 339° (NNW) 2,532 ? -14.1°
Maximum altitude 04:54:53 10° 356° (N) 2,446 ? -13.7°
Drops below altitude 10° 04:54:58 10° 356° (N) 2,447 ? -13.7°
Sets 05:01:08 0° 44° (NE) 3,391 ? -12.3°
